2015-049G

Last updated on Wed Apr 24 2024 00:02:58 GMT+0000 (Coordinated Universal Time)

1 40905U 15049G 24114.57251432 .00018066 00000+0 67894-3 0 9995 2 40905 97.5243 123.1438 0012648 165.1238 195.0375 15.27152973475377

Satellite not in orbit

2015-049G